User: anonymous   Login
Location: Unspecified
(0.0000°N, 0.0000°E)
Time: 22:50:53
(UTC+00:00)
Language:

FIREBIRD 3 - Orbit

View from above orbital plane
View from above orbital plane
View from above satellite
View from above satellite

Ground track
Ground track

The orbit data is extracted from the following two-line orbital elements,

1 40377U 15003B   17113.92575495 +.00008397 +00000-0 +35842-3 0  9991
2 40377 099.1195 287.0840 0137243 181.6887 178.3896 15.15026712122787
Epoch (UTC): 23 April 2017 22:13:05
Eccentricity: 0.0137243
inclination: 99.1195°
perigee height: 426 km
apogee height: 615 km
right ascension of ascending node: 287.0840°
argument of perigee: 181.6887°
revolutions per day: 15.15026712
mean anomaly at epoch: 178.3896°
orbit number at epoch: 12278

The dashed part of the orbit path shows where the satellite is in the earth's shadow,  

DLR